Location: Unspecified
(44.4377°N, 88.0525°W)
Time: 13:22:23
(UTC-05:00)

Resurs 1-4 Rocket - Visible Passes

Search period start: 28 July 2016 00:00
Search period end: 07 August 2016 00:00
Orbit: 800 x 814 km, 98.4° (Epoch: 27 July)

Date Brightness Start Highest point End Pass type
(mag) Time Alt. Az. Time Alt. Az. Time Alt. Az.
28 Jul 2.5 03:29:39 10° NNE 03:34:53 61° E 03:38:40 19° S visible
29 Jul 3.2 03:05:21 10° NNE 03:10:14 37° E 03:13:46 17° SSE visible
29 Jul 3.1 04:45:23 10° N 04:49:58 31° WNW 04:54:31 10° SW visible
30 Jul 4.0 02:41:22 10° NE 02:45:30 23° E 02:48:51 13° SE visible
30 Jul 2.5 04:20:32 10° N 04:25:36 49° WNW 04:29:56 14° SW visible
31 Jul 4.5 02:18:03 10° ENE 02:20:39 14° E 02:23:16 10° ESE visible
31 Jul 2.1 03:55:51 10° NNE 04:01:07 80° WNW 04:05:02 18° SSW visible
01 Aug 2.4 03:31:20 10° NNE 03:36:34 64° E 03:40:07 21° S visible
02 Aug 3.2 03:07:01 10° NNE 03:11:56 38° E 03:15:12 19° SSE visible
02 Aug 3.1 04:47:07 10° N 04:51:39 30° WNW 04:56:08 10° SW visible
03 Aug 3.9 02:43:00 10° NE 02:47:12 24° E 02:50:18 15° SE visible
03 Aug 2.5 04:22:15 10° N 04:27:17 47° WNW 04:31:23 15° SW visible
04 Aug 4.4 02:19:35 10° NE 02:22:23 14° E 02:25:10 10° ESE visible
04 Aug 2.1 03:57:33 10° N 04:02:49 77° WNW 04:06:28 20° SSW visible
05 Aug 2.3 03:33:01 10° NNE 03:38:16 67° ESE 03:41:33 23° S visible
06 Aug 3.1 03:08:41 10° NNE 03:13:39 40° E 03:16:38 21° SSE visible
06 Aug 3.2 04:48:52 10° N 04:53:19 29° WNW 04:57:43 10° WSW visible
